Retour au catalogue

STARLINK-32618

ActifCommunicationsVLEO
NORAD 62045·PAYLOAD·🇺🇸 United States

Lancé Nov 21, 2024 depuis Cape Canaveral Space Force Station

Loading…

Prochains Passages (prochaines 24 heures)

TLE

FraisSource: CelesTrak SupGP

Époque: Sep 14, 2026, 21:19 UTC

1 62045C 24216P   26257.88868056  .00020529  00000+0  74382-3 0  2574
2 62045  42.9997 267.9699 0001497 267.2181 300.6212 15.27557144    11

Suivez STARLINK-32618 en temps réel avec AllMySat

Download on the App Store